Wind_Speed
38 36 34 30 26 22 19 17 16 15 13 12 11 10 8 9 9 7 6 5 4 3 3 4 5 6 7 9 10 12 12 11 11 13 13 13 12 12 12 13 14 15 15 14 14 15 16 17 18 17 18 18 18 17 16 17 18 18 18 18 17 18 20 21 25 31 33 30 30 32 33 37 40 40 40 41 39 37 34 32 32 32 34 36 37
39 37 35 32 28 23 20 18 16 15 14 13 12 11 10 11 10 7 5 4 4 5 6 6 6 7 8 10 12 13 14 13 12 13 15 15 15 14 14 14 15 15 15 15 16 16 17 18 19 19 19 20 20 19 17 17 19 20 19 20 20 19 19 22 25 29 32 31 31 32 34 37 41 42 41 40 40 38 35 32 32 32 32 34 36
39 38 36 33 29 24 21 19 17 16 15 14 13 12 12 13 11 8 6 5 6 7 8 8 8 9 11 13 14 15 16 15 13 14 15 16 16 16 16 16 16 15 15 16 16 16 18 19 19 19 19 21 21 21 20 19 20 22 22 22 21 20 20 22 24 27 31 32 32 33 35 38 42 44 42 40 40 39 36 33 32 32 31 32 34
40 38 37 34 29 25 22 20 18 17 16 15 14 13 13 14 11 8 7 6 7 8 9 9 9 10 13 15 16 17 17 16 14 14 15 17 18 19 18 16 16 16 17 17 16 16 17 18 18 18 19 21 23 22 22 21 21 23 24 24 23 22 21 22 24 26 29 33 33 33 36 38 41 44 43 41 40 40 38 35 33 33 31 31 32
42 39 37 34 31 27 24 21 19 17 15 14 13 12 13 14 12 9 9 8 8 10 11 12 12 13 15 16 17 17 16 16 17 17 18 19 21 20 18 16 16 17 17 17 16 16 16 18 18 18 19 22 23 23 23 23 23 23 24 25 25 24 24 23 24 26 29 32 34 35 36 37 40 43 42 40 41 41 40 37 34 33 32 31 32
44 40 37 34 32 28 25 22 19 16 14 13 12 12 14 14 12 11 9 8 9 11 13 14 15 16 16 17 17 17 16 17 19 19 20 20 20 19 17 17 17 18 17 17 16 16 16 16 16 16 18 20 21 22 22 23 23 24 25 25 26 27 27 26 25 27 29 31 34 36 36 36 40 44 43 41 42 42 41 40 36 32 31 31 31
45 43 40 37 34 30 26 22 18 14 13 11 11 14 16 15 13 12 10 9 12 14 13 14 15 16 17 18 18 18 18 18 18 18 18 18 18 18 17 18 18 18 18 18 17 17 16 15 15 16 16 17 18 19 20 22 23 25 26 26 27 29 31 29 27 28 29 31 33 35 35 36 39 43 45 44 44 43 41 41 40 36 33 32 31
47 45 43 39 34 30 25 20 16 13 12 11 12 14 16 15 14 13 11 12 15 15 15 15 17 18 18 18 18 18 17 16 15 15 17 17 17 17 17 18 19 19 20 19 18 17 16 16 17 17 17 18 18 19 19 21 23 25 26 27 28 31 32 31 29 29 30 31 33 33 34 37 40 43 45 46 46 46 43 41 42 41 38 35 33
47 46 43 37 31 26 23 19 16 12 12 12 13 15 14 14 15 14 13 14 16 16 16 17 18 17 15 15 15 14 14 14 14 15 17 16 16 16 18 19 20 20 20 20 19 19 19 19 19 18 18 18 18 19 18 19 21 24 26 26 27 29 31 31 30 30 30 31 32 32 34 37 40 42 45 46 47 48 46 43 43 42 41 40 37
45 43 41 34 28 24 22 20 17 12 12 13 14 14 14 15 16 15 14 14 15 16 16 16 15 14 12 12 12 13 13 13 14 16 17 16 17 18 20 20 19 19 19 19 20 21 21 21 21 20 19 17 17 18 18 18 20 22 23 23 24 26 27 28 29 29 29 30 31 31 34 37 39 41 44 47 48 48 46 45 44 43 41 42 40
43 42 40 33 29 27 25 25 19 11 11 14 13 14 14 15 16 15 14 15 15 15 14 14 13 12 11 11 12 14 15 14 15 16 17 18 18 20 20 21 19 18 18 19 20 21 22 23 23 21 19 17 17 18 18 18 18 19 20 20 22 23 24 26 27 28 29 31 30 30 34 38 40 42 45 49 49 48 46 45 45 43 41 41 41
39 41 42 35 31 30 30 28 19 12 12 15 14 15 16 16 16 16 15 15 15 15 14 14 13 12 12 12 14 15 16 17 17 18 19 19 20 20 21 21 20 19 19 19 20 21 22 23 23 23 21 18 18 18 18 18 18 18 19 19 20 21 22 24 26 28 30 30 30 32 35 39 41 43 46 49 49 49 48 46 44 44 42 40 42
36 42 43 34 29 31 32 26 18 14 15 15 15 17 18 18 19 18 16 16 16 16 16 15 14 13 13 15 16 17 18 19 19 21 21 21 20 21 21 21 20 20 20 20 20 20 21 22 23 23 22 19 18 18 18 18 19 20 20 20 21 21 22 24 25 27 28 29 31 34 37 40 42 43 46 48 49 49 48 47 45 44 43 42 43
38 43 42 34 30 34 32 20 14 13 15 15 17 20 20 20 20 19 18 17 17 18 17 15 14 14 15 17 19 20 20 20 21 22 23 23 22 22 22 22 21 21 21 22 22 21 22 22 22 22 21 19 17 17 18 19 21 22 22 21 22 23 24 24 25 26 26 27 31 34 37 39 40 43 46 47 47 47 47 48 47 46 46 43 43
36 39 40 36 35 34 26 17 16 15 16 17 21 23 22 22 22 21 20 19 18 18 17 16 15 15 17 19 21 21 20 20 22 23 24 25 23 23 24 24 23 22 22 23 23 22 23 23 21 20 19 17 16 16 18 20 22 23 23 23 23 24 25 24 24 26 27 28 30 32 35 36 38 44 47 46 45 46 45 46 46 46 46 43 42
36 39 40 40 39 32 21 19 18 18 19 21 24 24 23 23 23 22 21 19 18 18 18 17 17 16 17 19 20 21 20 21 23 24 24 24 23 24 24 25 25 25 24 24 24 24 24 22 20 19 18 18 16 15 17 20 22 24 24 25 26 26 24 23 24 26 28 28 28 30 31 34 39 45 45 44 45 46 45 45 44 44 43 40 41
39 44 46 47 45 35 22 20 21 22 23 26 27 26 25 24 23 22 21 20 19 18 18 18 17 17 17 18 19 20 21 22 22 23 24 24 25 25 23 22 23 24 24 24 24 24 23 20 19 19 19 18 16 14 16 19 22 24 25 26 27 26 24 24 24 26 25 25 26 29 31 35 42 44 43 45 48 48 46 45 42 40 40 39 40
43 47 51 52 51 40 26 23 23 25 27 28 28 27 26 23 22 22 22 22 21 20 18 17 17 18 19 19 20 20 20 20 21 22 24 25 26 24 21 19 20 22 22 23 23 22 20 18 17 17 18 17 15 14 16 19 21 23 25 27 27 26 25 24 25 25 23 24 27 30 32 37 43 44 45 49 52 48 44 42 38 36 38 40 41
45 48 52 53 48 38 29 25 25 27 29 29 28 28 25 23 22 23 23 24 23 21 19 18 19 20 19 20 20 19 19 20 22 24 24 24 23 21 20 19 20 21 21 21 21 19 18 17 16 16 16 15 15 15 16 19 21 23 25 27 27 26 25 24 25 25 25 27 30 31 34 40 44 45 49 53 54 49 43 39 35 33 35 39 41
42 46 49 48 43 37 32 27 25 28 29 29 29 27 26 25 25 24 25 26 25 22 20 18 18 19 20 20 20 20 21 22 24 24 22 21 20 19 19 19 19 19 19 20 20 18 17 17 17 17 16 15 15 16 17 19 21 23 25 26 27 27 26 25 25 26 27 29 30 31 35 42 45 47 52 56 56 51 46 39 31 27 32 40 42
40 42 42 41 39 38 33 27 26 27 28 29 30 29 27 27 27 26 27 27 26 24 20 16 17 19 21 22 22 22 23 24 23 22 21 20 19 19 19 18 17 17 18 19 19 18 18 19 18 17 16 15 15 16 17 19 21 22 24 25 26 27 26 26 26 25 26 28 29 30 35 41 45 49 53 58 58 54 49 39 23 21 29 38 42
37 37 36 36 37 37 33 29 29 29 29 32 34 32 29 28 28 28 29 29 29 28 22 19 20 22 22 21 22 22 23 23 21 20 19 19 19 19 17 15 15 16 17 17 18 18 20 20 18 16 15 15 15 16 17 19 20 21 23 24 26 26 25 25 26 25 25 27 28 29 33 39 45 49 53 58 59 55 51 37 17 20 26 31 35
31 31 31 31 34 35 33 29 29 30 32 35 36 34 31 30 29 30 31 31 30 27 22 20 22 23 21 20 20 21 21 21 21 20 19 19 19 17 15 13 14 15 17 18 18 19 19 18 17 15 16 16 16 16 17 18 19 20 22 23 24 23 23 23 24 23 25 26 26 27 31 36 43 48 52 57 59 56 51 35 12 15 18 24 29
23 24 26 30 33 34 31 27 28 29 31 33 35 34 34 32 30 31 33 32 28 24 23 22 22 21 18 18 19 19 20 21 21 21 20 19 18 15 12 12 14 16 17 18 18 18 18 17 15 15 16 16 16 16 17 17 18 20 21 21 21 21 20 21 21 22 24 25 25 25 28 32 39 46 50 54 55 54 51 35 10 7 8 13 20
21 23 27 28 28 27 26 25 27 28 30 31 33 34 35 32 30 32 33 30 24 22 22 21 19 18 17 18 18 19 20 21 21 21 21 18 15 12 12 13 15 16 17 17 17 18 17 16 15 14 15 15 15 16 17 17 19 20 19 18 17 17 17 18 19 20 23 24 24 24 26 29 34 42 46 50 52 52 51 40 19 4 5 6 11
20 23 25 22 19 21 25 28 29 29 30 31 31 32 32 30 30 30 27 23 20 20 19 18 18 17 17 17 18 19 20 21 21 21 19 16 13 12 13 15 15 15 16 16 16 17 16 15 14 13 13 14 15 17 18 19 20 18 15 14 14 15 16 18 20 21 23 24 24 23 24 25 30 37 41 45 49 50 49 48 35 13 4 7 7
13 16 18 18 19 21 23 26 27 27 27 26 26 27 28 28 26 23 19 18 19 19 18 17 16 16 16 16 17 19 20 21 22 21 18 14 12 13 14 14 14 14 14 15 15 15 14 13 13 13 13 14 16 17 18 18 15 12 11 12 14 16 17 19 21 21 23 25 25 24 23 24 26 33 38 40 44 48 47 48 46 30 11 4 4
10 11 14 16 17 19 19 21 22 23 23 23 24 25 24 22 19 17 16 17 17 16 15 14 14 14 16 17 18 19 21 22 22 20 16 13 13 14 14 13 13 13 14 13 14 14 13 12 12 13 13 14 15 15 13 11 9 9 11 14 15 17 18 19 19 20 22 24 25 25 24 24 24 28 35 36 39 44 45 44 47 44 29 15 9
5 8 11 12 12 13 16 18 18 19 21 23 23 22 20 18 17 15 14 14 14 13 13 13 14 16 17 18 19 20 22 22 21 19 16 14 13 13 13 13 13 13 13 12 13 13 13 12 11 11 11 10 9 8 7 7 9 12 14 15 16 17 18 19 19 20 21 23 25 26 26 26 24 24 29 33 35 40 44 43 44 48 42 32 24
5 7 10 10 9 12 14 15 16 17 19 20 20 19 18 16 15 13 12 12 13 13 13 14 16 17 17 18 19 20 20 20 19 18 16 14 13 12 12 12 12 11 11 10 10 11 10 10 9 8 7 5 5 5 7 10 14 15 15 16 16 17 18 18 19 20 21 23 25 25 25 25 24 22 24 28 32 37 41 42 43 46 46 43 39
8 11 13 11 10 11 13 13 13 14 16 16 16 16 15 14 13 12 13 14 15 15 15 16 16 16 16 17 17 18 19 18 18 17 15 13 12 11 11 11 10 9 8 9 9 9 9 7 7 5 4 5 7 9 11 14 15 15 14 15 15 16 17 18 19 20 22 22 23 24 23 23 23 22 21 23 27 32 35 38 41 43 44 44 43
11 14 14 12 11 10 10 10 11 12 13 14 14 14 15 15 15 16 17 16 16 16 16 16 16 16 16 16 15 16 16 15 15 14 12 10 10 10 10 10 9 8 8 9 10 9 8 7 6 5 6 7 10 11 12 13 13 13 13 13 14 15 16 18 19 20 22 22 22 23 22 22 22 22 21 22 25 28 30 32 36 40 43 42 42
12 13 12 12 10 10 11 12 12 13 14 15 16 17 19 19 19 19 18 17 16 16 16 16 16 16 16 14 13 13 13 12 10 9 8 7 8 9 10 9 8 8 9 9 9 9 8 7 6 7 8 9 10 10 10 11 11 12 12 13 13 15 16 17 19 20 21 21 21 21 21 21 22 21 21 22 24 26 27 28 31 35 39 42 41
12 13 14 13 12 12 12 12 14 15 16 17 19 20 20 19 19 19 18 18 17 16 16 15 16 16 15 12 11 11 11 8 7 7 6 6 7 8 9 9 8 9 9 9 8 8 8 8 8 8 8 8 8 8 9 9 10 11 12 12 13 15 16 18 19 21 21 21 20 20 20 20 21 22 22 22 23 24 25 25 26 29 34 38 39
13 15 16 15 14 13 12 12 14 16 17 19 20 20 20 19 18 18 19 18 17 15 15 15 16 16 14 11 10 11 10 8 7 7 6 5 5 7 9 9 9 10 9 8 7 7 8 8 7 6 6 6 7 7 8 9 10 11 12 14 15 17 18 20 21 21 21 21 20 19 19 19 20 21 22 22 22 24 24 24 24 25 27 31 35
13 14 16 16 14 13 13 14 15 16 17 18 19 19 18 18 17 18 19 18 16 14 14 14 15 15 13 11 10 10 9 8 8 8 8 7 6 6 7 8 9 10 9 8 8 8 8 7 6 6 6 6 6 7 8 9 10 11 13 16 17 19 20 21 21 20 20 20 19 19 19 18 19 20 21 21 21 22 23 23 22 22 23 24 28
11 12 14 15 14 14 15 16 16 17 17 18 19 19 19 18 18 18 18 16 14 13 13 14 15 15 13 12 10 9 8 9 10 10 10 9 7 6 7 7 9 9 9 8 8 8 8 7 7 7 7 7 7 8 10 11 12 13 14 16 18 19 20 20 19 18 18 17 17 18 18 18 18 19 20 20 21 21 22 22 21 21 21 20 21
10 10 12 13 14 15 16 17 17 17 18 19 20 21 21 20 18 17 15 13 12 12 12 13 14 13 12 10 9 9 8 9 10 11 12 11 9 8 7 7 9 10 10 9 9 8 8 7 7 8 8 8 9 10 11 13 14 15 16 16 17 18 18 17 16 15 15 15 15 16 16 16 16 17 18 19 20 20 20 21 21 20 20 21 20
9 9 10 12 14 16 16 16 16 17 18 19 20 20 21 20 18 16 14 14 13 11 11 12 13 12 10 9 8 8 8 8 10 12 13 12 10 8 8 8 10 11 11 10 10 9 8 8 8 9 11 11 11 11 13 14 16 16 16 16 15 14 14 13 13 13 13 14 14 14 14 15 15 16 16 17 18 19 19 19 20 19 19 20 20
10 10 11 12 14 15 15 15 16 16 17 18 19 20 21 19 16 15 14 14 12 11 10 12 12 11 10 9 9 8 7 8 9 11 13 13 12 10 9 9 10 11 10 10 10 10 10 9 10 11 12 11 12 13 14 15 15 15 14 13 12 12 12 11 11 12 13 13 14 14 14 14 14 15 15 16 17 17 17 17 17 17 17 17 18
12 12 12 12 13 14 15 15 15 16 16 17 19 20 18 15 13 13 14 13 11 10 10 11 11 11 10 9 8 7 8 8 10 11 13 14 12 10 9 8 8 9 8 8 9 10 10 10 11 12 12 12 13 14 14 13 13 11 10 10 9 10 10 10 10 11 12 13 13 13 13 13 14 15 15 16 16 16 16 15 15 15 14 15 16
13 13 13 13 14 15 15 15 14 14 15 17 18 17 15 13 13 13 14 13 11 9 9 10 11 11 10 10 8 7 7 8 10 11 13 13 12 10 8 8 8 7 7 8 9 9 10 11 12 12 12 13 14 13 11 10 9 8 7 8 8 9 9 10 10 11 12 12 13 13 13 13 14 14 14 15 16 16 16 15 15 14 14 13 14
13 13 13 13 14 14 14 14 14 14 16 17 17 15 13 13 14 14 14 14 11 9 9 9 10 10 11 10 9 7 7 7 9 11 12 12 11 8 7 7 6 5 5 6 8 8 9 11 12 13 14 14 12 9 8 7 6 6 6 7 7 8 9 9 10 11 11 12 13 13 12 12 13 14 14 15 16 17 16 15 15 15 15 13 13
12 12 11 11 12 12 12 12 13 14 16 17 17 14 13 14 15 14 14 13 12 10 9 9 9 10 11 11 10 9 8 8 8 8 10 11 10 7 6 5 4 4 5 6 8 8 9 11 12 13 14 12 9 6 6 5 5 5 5 6 6 7 8 8 9 10 11 12 13 13 13 12 13 14 15 16 17 17 16 16 16 16 16 15 14
11 10 9 10 11 11 11 12 13 14 15 15 14 12 11 13 13 13 12 12 11 10 9 8 9 11 12 12 11 10 9 8 6 4 5 7 9 10 8 5 5 5 6 7 8 8 10 11 11 11 11 9 6 5 4 4 4 4 5 5 6 7 7 7 8 9 10 11 12 13 13 13 13 14 14 16 17 17 16 16 16 16 16 16 15
9 8 8 9 9 9 9 10 10 10 10 10 10 9 8 10 11 11 12 12 12 11 10 10 11 12 13 12 11 10 9 7 5 4 3 3 7 10 9 6 6 7 7 8 8 10 12 13 12 10 8 6 5 5 4 4 4 4 5 5 6 7 8 8 8 8 9 10 12 12 13 13 13 14 14 15 16 16 15 14 14 15 15 15 15
9 7 6 6 5 5 5 5 6 5 5 6 6 6 7 7 8 10 12 13 13 12 12 13 13 13 13 13 12 10 8 7 5 4 3 1 4 9 9 7 6 7 8 9 10 12 13 12 10 8 5 4 4 5 5 5 5 5 5 6 6 7 8 8 8 8 9 10 11 11 11 12 13 13 14 14 15 15 15 14 13 14 14 14 15
8 5 4 4 4 4 4 5 5 5 5 4 4 6 7 8 9 10 12 13 13 13 14 15 14 14 13 13 12 11 9 8 7 5 2 1 3 7 9 8 7 7 8 10 12 13 14 12 9 6 4 3 4 5 5 6 6 6 6 6 7 7 7 8 8 9 9 10 11 10 10 10 11 12 13 14 14 14 15 14 13 12 12 13 14
8 6 5 5 6 6 6 7 7 7 7 6 6 6 6 7 9 11 11 12 12 13 15 16 15 14 14 14 13 11 10 10 9 6 5 5 6 8 9 9 9 9 10 12 13 14 14 12 9 6 4 3 4 4 5 6 7 7 7 7 7 7 7 7 7 8 9 10 10 10 9 9 10 10 12 13 12 13 13 13 12 11 11 11 12
8 7 7 7 6 7 8 9 10 10 10 10 9 8 7 8 8 10 10 11 11 12 14 16 16 15 15 13 12 11 12 12 11 8 7 8 9 10 10 10 10 11 12 13 15 15 14 11 8 5 4 3 3 4 6 7 8 8 8 7 7 7 7 7 7 7 8 8 9 9 9 9 9 10 11 11 10 10 11 11 11 11 10 9 10
9 9 8 7 6 6 6 9 11 13 14 14 14 12 11 10 9 10 11 12 13 13 14 16 16 15 14 13 12 12 13 13 11 9 9 8 8 9 9 10 11 12 14 15 15 15 13 9 6 4 5 5 5 6 8 9 10 10 10 8 7 7 7 8 8 8 8 8 8 8 9 8 8 9 10 10 9 9 9 9 9 11 10 8 8
Wind_Direction
216 217 217 215 211 209 207 206 206 208 208 207 203 199 190 175 172 177 169 157 167 199 239 264 284 306 314 311 312 318 322 324 324 323 319 316 313 307 304 299 293 290 288 285 284 283 284 287 287 288 290 290 290 289 287 284 284 287 292 297 304 315 320 320 318 318 321 325 329 332 336 336 335 335 331 325 322 319 308 295 288 279 266 261 260
217 217 217 214 211 208 207 207 207 209 210 210 206 202 194 180 179 188 185 192 220 238 254 267 279 292 298 300 303 309 313 315 315 312 308 308 310 308 306 304 299 293 288 283 282 283 284 284 285 286 289 290 290 290 289 287 286 285 286 290 298 310 317 318 317 316 317 322 326 330 334 336 335 335 332 326 323 321 313 300 291 283 270 260 259
219 217 217 215 210 206 205 207 208 210 211 212 211 206 195 185 187 193 191 210 242 255 264 270 278 286 291 295 300 305 306 305 303 301 297 296 301 303 303 301 297 293 289 285 282 282 283 283 283 285 286 287 289 291 293 294 293 289 286 286 293 306 315 315 313 312 313 317 323 328 331 334 334 334 332 328 325 324 318 307 296 288 275 264 261
219 217 216 214 209 204 203 204 206 209 212 214 213 206 195 191 193 195 196 212 234 247 258 268 277 284 289 293 297 297 295 291 290 289 286 287 294 299 299 296 294 291 288 286 283 281 282 283 285 286 285 285 288 291 294 295 296 295 290 286 288 300 310 311 308 308 308 311 318 324 328 330 333 335 335 331 328 326 322 314 305 296 283 269 265
217 215 215 213 209 203 201 201 203 206 210 214 215 207 197 196 199 202 205 216 229 237 247 258 265 270 278 285 288 285 283 286 290 291 290 290 294 297 295 293 293 291 288 286 282 280 282 285 288 289 286 284 286 288 291 293 295 296 294 291 290 293 301 306 306 304 303 307 313 319 323 326 330 335 338 334 330 328 325 319 310 302 292 278 269
216 212 211 213 211 205 200 200 201 203 207 212 216 214 207 205 208 210 212 223 242 250 253 255 256 261 270 277 277 276 279 286 291 293 292 291 292 293 293 293 293 291 287 284 281 280 282 285 289 290 286 285 286 287 288 290 293 296 296 297 296 293 293 298 302 302 302 305 311 314 318 323 327 332 337 335 329 327 327 323 315 306 298 287 275
215 211 210 213 213 207 201 199 197 198 201 205 216 220 216 216 218 220 225 238 254 262 260 255 257 265 272 275 275 276 281 284 288 293 295 295 293 293 294 295 295 293 288 284 282 280 280 284 290 292 292 291 289 287 288 291 293 295 296 297 297 295 293 294 297 300 301 306 310 312 315 320 324 328 333 334 329 325 325 322 316 308 300 291 282
217 213 209 209 208 205 204 200 192 189 193 202 216 219 216 219 224 227 235 244 254 261 262 261 266 273 276 277 278 278 280 283 288 298 302 299 295 295 297 298 297 296 292 287 284 280 279 284 290 295 299 299 294 289 289 292 293 294 296 298 297 297 296 296 299 300 300 304 308 310 314 318 321 325 330 332 328 324 323 319 313 309 303 293 285
216 213 207 202 200 202 207 203 191 187 197 208 219 219 217 220 224 229 238 246 253 259 262 265 268 272 275 277 279 280 283 289 296 302 303 301 299 300 302 301 299 297 294 291 287 282 280 284 289 294 299 302 301 296 292 293 294 294 297 300 299 298 298 299 300 301 300 302 306 309 313 316 320 324 326 327 324 321 320 316 311 309 305 296 286
215 211 203 196 191 195 205 205 198 200 208 213 219 220 221 223 225 233 242 247 254 258 258 259 260 266 276 282 287 289 291 297 301 301 302 301 301 302 301 299 296 294 294 293 290 287 284 285 287 290 295 301 303 301 299 299 298 295 295 297 297 296 296 296 298 300 300 302 305 308 311 313 318 322 321 321 321 318 316 313 309 307 304 298 288
214 209 204 197 191 191 196 201 207 221 216 212 220 222 222 226 230 238 245 249 256 258 255 254 257 266 280 289 295 295 294 298 300 300 301 301 300 300 297 294 292 293 296 296 293 290 287 287 287 286 288 296 302 304 305 306 303 297 293 293 293 294 295 296 299 301 302 302 303 304 307 311 316 319 318 318 318 315 312 310 306 302 298 293 288
214 212 210 205 196 192 192 199 218 242 221 211 223 227 225 230 233 238 242 246 252 254 253 255 261 269 278 285 292 295 295 295 294 296 298 298 298 298 295 293 292 293 297 299 298 295 292 291 289 284 282 289 299 304 307 308 306 302 298 296 296 297 297 299 301 301 302 302 299 299 304 308 312 314 316 317 316 312 310 307 303 298 292 286 283
215 215 210 202 196 195 194 202 228 238 215 212 226 229 232 235 234 237 241 243 249 252 254 258 264 272 279 282 287 290 293 292 290 291 293 293 293 294 293 293 292 293 296 299 301 303 301 297 291 284 280 282 292 301 305 307 308 308 305 301 299 299 299 300 301 302 303 300 295 296 301 304 307 312 317 318 315 311 309 305 301 296 289 281 277
210 210 205 199 197 196 196 212 243 228 210 218 228 231 237 239 237 240 243 245 251 254 256 262 268 276 280 279 280 284 288 288 286 285 284 284 287 289 288 287 287 289 293 296 298 304 307 303 295 288 282 279 285 296 300 305 310 311 309 305 301 300 301 302 304 305 305 303 298 298 302 303 307 314 318 318 315 311 307 303 298 293 286 280 275
203 204 202 198 194 193 202 238 256 228 214 222 229 234 241 241 240 243 243 246 252 256 259 263 268 274 278 278 280 283 284 284 281 279 278 280 286 290 289 287 284 282 284 287 290 298 305 303 295 288 283 279 283 291 295 300 307 311 310 307 305 304 306 308 309 308 308 307 304 303 304 306 311 317 319 318 316 313 308 302 296 291 285 278 271
202 204 203 197 191 194 217 249 246 227 222 225 231 237 239 238 239 241 242 245 251 255 259 261 265 272 277 280 281 280 279 279 278 278 278 282 289 293 292 289 284 279 278 280 284 294 302 301 292 284 282 282 286 289 289 295 303 308 309 309 309 310 312 313 312 310 310 308 306 305 305 308 314 319 321 321 320 317 311 302 295 289 283 272 263
208 209 208 203 200 203 225 246 237 227 224 225 231 236 234 235 238 238 240 244 248 255 261 263 267 271 273 273 273 272 274 275 276 278 281 286 292 296 296 292 285 279 277 278 285 294 301 300 293 286 284 286 289 286 285 292 300 305 309 311 312 314 316 315 313 313 311 309 308 305 305 313 320 323 324 325 325 321 312 302 294 286 276 264 254
214 212 211 210 209 211 226 240 234 227 223 224 230 233 232 236 240 240 242 246 249 257 263 263 263 263 265 270 270 269 271 275 278 282 285 290 295 298 301 300 292 285 281 282 288 295 298 298 296 292 290 290 287 282 284 292 299 304 309 312 313 315 318 317 316 315 313 312 311 308 311 322 329 329 328 329 330 326 315 305 297 282 268 256 248
215 214 215 214 212 217 230 235 230 226 224 226 231 234 237 241 243 244 246 248 251 256 257 256 255 257 265 273 270 267 272 280 285 288 291 295 297 297 300 304 300 293 289 289 292 295 295 296 297 296 294 290 283 280 285 291 298 305 309 310 312 317 319 319 319 318 316 315 314 314 323 333 336 334 333 334 334 331 323 314 301 279 258 247 241
216 215 215 214 216 225 233 234 231 229 227 228 233 238 243 246 244 244 247 248 249 248 246 249 254 262 272 275 270 269 277 283 287 290 295 300 301 300 302 304 302 297 293 292 293 296 297 297 296 296 294 287 281 281 286 293 300 306 309 310 314 318 319 320 322 320 317 317 315 319 331 340 341 338 339 340 339 336 331 323 305 272 247 238 234
216 214 216 221 225 229 232 234 233 230 228 231 235 241 247 248 246 245 245 244 240 236 238 248 256 264 274 275 271 273 279 283 288 294 300 304 306 307 308 307 302 297 293 292 295 297 298 296 294 294 292 286 283 283 289 297 303 305 307 310 314 317 318 320 321 319 317 317 315 321 335 344 344 343 343 345 344 341 338 331 304 257 241 235 232
216 218 225 229 227 226 232 240 239 235 236 237 239 243 246 246 245 245 242 238 234 235 242 251 256 263 273 273 271 276 283 289 296 300 303 306 308 308 309 307 301 297 294 294 296 296 296 297 297 296 291 286 286 289 295 301 301 302 307 310 313 314 315 317 318 317 317 317 316 324 339 347 348 348 347 347 348 348 346 339 299 242 239 237 233
222 225 228 227 224 228 238 245 242 240 243 243 242 245 247 245 244 243 238 233 234 240 250 257 260 266 271 270 272 282 291 297 302 304 304 308 309 307 304 300 298 299 299 299 299 299 299 301 300 296 291 289 293 297 298 298 298 302 307 308 310 312 313 315 317 317 317 317 318 329 342 348 352 352 349 348 352 354 352 347 306 238 239 238 235
224 224 224 224 227 235 241 242 240 243 248 249 249 251 252 247 242 238 233 229 233 248 260 263 263 264 266 269 278 289 296 300 304 305 306 309 309 305 299 295 297 301 301 301 302 302 302 302 299 294 293 294 298 298 295 295 298 303 306 306 308 311 313 318 322 321 322 321 321 330 341 347 354 356 352 350 354 357 358 358 340 251 256 244 237
220 221 223 228 236 242 241 240 241 245 249 252 252 252 251 245 236 230 229 231 242 258 263 260 258 259 266 275 283 291 296 300 303 306 307 308 304 298 293 294 297 299 299 301 303 303 302 302 299 296 295 295 296 294 293 296 301 303 305 306 309 314 319 327 332 332 332 331 326 330 338 345 355 358 354 353 357 360 3 10 14 323 295 286 248
217 222 226 232 242 244 240 241 244 244 246 249 248 245 243 238 230 225 228 238 254 261 257 254 258 264 271 278 283 290 296 301 305 308 309 305 297 291 291 292 294 295 296 299 300 299 300 300 297 294 292 291 292 292 295 300 302 302 304 307 313 321 328 333 336 337 338 338 334 332 333 338 350 357 356 357 1 3 8 16 23 22 306 307 283
210 225 231 229 230 233 236 240 243 242 242 241 234 228 225 224 224 228 239 252 256 256 256 259 264 270 275 281 286 293 300 304 307 308 307 298 288 288 289 289 290 291 292 293 293 291 291 289 287 287 288 289 292 294 297 299 298 298 306 314 321 329 334 335 336 337 339 341 340 337 333 333 343 356 0 2 4 7 12 19 25 31 41 12 340
195 215 223 222 224 229 234 238 238 236 230 220 213 212 214 219 230 247 259 258 254 255 260 264 269 276 282 288 294 299 302 304 304 303 297 288 281 283 285 285 285 286 285 285 284 284 283 282 281 285 288 289 292 293 292 291 293 303 315 321 325 330 332 332 333 335 337 340 341 341 339 335 339 354 5 9 9 9 14 20 25 31 44 61 57
207 208 211 214 214 217 223 229 230 228 223 218 217 219 224 234 246 253 252 248 249 256 263 268 276 283 289 293 297 300 299 298 297 293 286 279 277 279 280 280 281 284 286 285 283 284 287 287 285 286 287 287 287 285 278 285 305 317 321 323 326 328 329 331 334 337 339 341 343 345 343 341 342 351 3 13 17 14 14 20 26 30 36 44 47
247 222 222 227 220 213 215 219 222 225 227 228 231 233 235 238 240 239 242 250 258 264 269 276 281 284 289 294 296 297 295 292 289 285 280 277 275 274 275 276 280 287 292 292 290 291 293 293 290 286 282 278 280 286 293 305 314 318 318 321 324 327 330 335 339 343 346 345 345 347 346 345 348 354 0 10 18 19 16 18 25 29 32 35 37
239 230 232 236 228 219 218 220 224 229 232 235 237 237 237 236 237 245 257 265 267 267 271 277 280 283 288 293 295 294 292 288 284 279 276 273 271 270 272 277 285 297 302 299 300 298 293 292 293 281 263 271 287 294 300 307 310 311 313 319 325 329 335 341 345 348 351 351 349 349 349 349 353 360 4 6 13 19 18 16 21 26 29 31 32
240 231 232 233 228 228 233 238 242 241 238 238 241 244 247 249 253 258 263 263 261 263 268 273 277 282 288 293 294 292 289 285 279 273 269 267 268 270 274 281 291 303 304 301 301 297 288 287 287 269 261 281 294 296 299 303 306 310 318 325 330 335 340 346 349 350 351 353 353 351 353 355 355 359 6 10 12 17 20 20 21 24 27 29 30
235 233 235 236 235 240 246 249 250 247 243 242 244 247 250 252 253 255 257 257 257 260 265 270 275 281 286 289 289 286 283 279 271 262 258 262 265 270 278 288 298 303 304 303 300 292 282 279 278 271 271 282 291 292 296 302 309 317 325 329 334 339 343 345 347 348 349 351 354 354 356 359 359 358 3 11 16 19 23 27 28 27 26 27 28
231 240 244 242 241 243 243 242 243 244 245 245 244 245 245 246 247 250 252 253 255 258 263 268 274 279 279 277 277 277 273 265 252 247 251 260 265 273 284 295 301 303 305 305 294 281 276 277 279 281 282 288 295 299 303 311 318 321 326 331 334 338 340 340 342 344 345 347 349 352 355 360 3 4 4 9 17 21 23 28 33 33 30 26 25
227 237 242 243 244 242 238 237 240 244 246 244 242 241 241 242 242 243 244 247 251 255 261 267 272 273 270 265 265 262 255 252 253 258 267 278 279 280 287 295 300 300 300 297 285 275 275 276 278 284 290 296 303 307 307 312 318 320 325 330 332 333 334 335 336 338 340 342 344 348 352 357 3 8 9 11 17 21 23 26 33 38 38 33 29
224 229 236 241 243 243 243 245 247 250 253 250 245 242 242 242 240 238 237 239 243 248 256 264 268 266 263 261 260 254 252 265 280 287 295 298 293 288 289 292 294 290 285 282 279 274 272 271 272 280 288 292 298 305 309 314 320 323 325 327 329 329 328 329 330 330 333 336 340 343 347 351 358 5 9 13 17 21 24 27 31 39 45 44 38
230 232 236 241 246 250 251 253 254 255 255 253 251 250 248 246 241 235 231 231 236 246 259 266 266 264 264 267 265 259 268 286 295 296 298 295 288 290 294 290 282 275 271 271 271 268 267 269 272 279 287 293 301 311 318 321 323 327 327 326 327 326 325 326 327 329 330 334 338 343 346 350 357 3 6 10 16 19 22 26 30 35 43 46 44
234 237 238 244 250 252 253 255 255 254 251 248 248 250 249 245 239 234 232 237 245 254 263 268 267 267 272 274 267 267 278 286 285 287 291 291 287 292 299 287 269 261 260 263 263 262 264 269 274 281 288 298 309 318 323 325 327 329 330 329 326 325 325 327 329 331 334 337 342 347 350 353 0 7 7 10 15 18 21 26 29 32 38 42 42
238 244 247 250 251 253 254 253 249 247 247 246 246 246 243 239 239 243 247 249 249 250 258 266 268 268 269 269 268 275 284 280 274 278 283 283 283 291 298 283 262 253 254 257 259 264 271 275 281 289 294 303 315 323 325 328 330 331 331 330 329 328 332 336 337 338 342 346 349 353 356 1 10 16 15 14 17 18 20 26 29 32 37 41 42
243 247 248 249 249 251 253 252 248 247 247 247 246 245 243 244 249 254 254 250 246 248 257 264 264 262 261 264 272 286 294 286 280 281 280 277 278 287 290 276 255 247 252 260 266 275 283 286 289 294 298 308 320 326 327 328 330 330 331 332 335 339 344 348 350 349 349 351 355 360 4 11 21 26 25 23 22 21 21 26 30 33 37 41 42
243 245 248 250 250 250 254 256 254 250 248 247 246 247 249 251 252 251 248 246 247 253 258 257 253 253 257 261 270 290 302 295 287 287 283 277 277 283 281 262 242 238 250 266 276 284 291 293 293 296 301 311 320 324 326 328 328 329 334 340 346 352 356 359 1 359 354 354 0 6 11 19 28 32 30 28 27 25 25 27 30 32 35 39 40
242 247 251 253 253 254 257 257 253 248 247 247 245 245 246 247 244 243 244 245 248 256 257 249 242 245 253 258 267 288 304 299 289 287 284 278 275 274 263 243 232 235 250 269 279 286 292 297 298 301 305 312 318 322 325 327 330 337 346 353 359 3 5 7 8 5 359 358 4 10 16 24 32 34 31 27 27 29 30 30 31 32 34 37 41
247 252 256 259 258 258 256 251 247 247 246 244 242 242 243 244 242 240 240 241 244 251 252 246 244 250 256 260 269 289 304 299 290 286 284 280 274 263 238 226 225 229 244 266 281 289 294 297 299 300 302 307 314 320 322 329 343 354 357 2 8 11 12 12 12 9 5 4 8 12 16 23 30 31 26 22 23 28 33 35 34 34 35 37 43
261 262 259 254 251 250 246 242 243 247 247 248 248 244 238 237 239 240 238 237 239 240 239 242 254 264 265 266 275 292 304 305 297 287 281 275 262 233 206 210 233 245 257 274 286 294 299 300 296 293 296 304 315 321 323 335 355 2 1 5 10 10 12 13 14 11 8 8 10 11 11 15 22 25 21 16 16 22 31 38 39 38 37 39 44
269 263 251 242 242 247 250 250 252 253 253 257 260 254 240 237 244 248 242 234 231 232 235 245 258 266 268 271 279 293 306 311 307 298 290 271 242 219 208 222 248 263 278 287 293 304 314 314 306 298 297 306 317 321 326 342 354 356 359 4 6 4 5 10 14 12 7 6 8 9 6 7 13 18 16 13 11 15 25 36 42 42 40 40 43
264 255 248 247 247 249 251 252 252 250 250 256 265 264 250 243 248 249 241 230 227 235 249 260 264 266 270 274 281 292 305 309 300 299 322 290 227 217 220 232 242 254 276 290 299 310 316 315 310 305 303 309 314 314 322 340 347 348 352 356 358 0 0 2 8 10 7 6 10 11 7 5 8 13 12 9 9 12 17 25 36 43 45 45 46
255 251 250 250 244 241 246 247 242 242 253 265 270 266 256 246 241 238 232 229 233 245 258 265 267 269 273 279 283 285 290 300 297 291 314 338 212 214 222 233 239 249 273 292 304 312 312 307 302 299 303 311 310 306 314 330 338 341 346 348 351 355 354 352 358 3 3 7 14 15 9 4 6 8 7 6 8 11 12 15 26 36 42 46 49
238 233 234 239 238 245 255 253 246 252 271 284 280 270 263 255 244 234 231 234 242 254 264 267 268 270 274 278 279 275 273 285 294 279 248 243 238 227 231 244 255 262 278 296 305 309 307 301 293 292 304 317 310 304 312 323 327 333 340 341 341 344 345 345 350 354 355 3 12 14 8 4 6 7 5 4 7 10 10 12 20 28 34 40 46
214 209 225 244 253 262 267 266 264 269 277 281 279 276 273 266 257 251 251 253 257 265 270 271 269 271 274 275 273 266 262 271 279 266 228 224 241 243 246 258 265 271 283 294 298 299 299 294 287 290 308 324 314 308 315 320 322 326 330 329 327 329 331 334 340 344 346 352 1 3 1 2 8 11 10 9 9 8 8 11 19 24 27 33 38
197 200 215 230 244 256 263 263 264 272 279 280 277 274 271 266 260 258 260 263 265 270 273 269 264 264 267 265 259 254 255 262 267 262 241 232 238 245 251 256 260 270 285 291 289 288 288 285 280 290 317 336 324 318 326 331 330 329 328 323 318 318 318 320 326 332 336 341 348 351 352 358 5 11 15 17 17 12 9 11 19 26 28 30 36
213 212 217 228 238 248 253 252 253 261 269 273 274 272 267 261 257 255 256 260 264 268 269 265 259 256 257 254 248 247 250 252 251 247 244 240 237 239 246 252 262 279 290 289 282 280 283 284 290 318 344 351 345 341 344 346 342 337 334 330 322 315 311 312 315 319 324 333 342 344 345 352 1 8 16 23 26 23 16 11 17 27 32 34 39
Height
1523 1525 1527 1529 1531 1533 1534 1535 1537 1538 1538 1539 1540 1540 1540 1541 1541 1542 1543 1543 1544 1545 1545 1545 1545 1545 1545 1544 1544 1543 1543 1542 1542 1542 1542 1542 1541 1541 1540 1539 1538 1537 1536 1535 1535 1534 1534 1533 1533 1533 1532 1532 1531 1530 1530 1529 1527 1526 1525 1524 1523 1522 1520 1518 1514 1509 1508 1508 1506 1504 1502 1500 1497 1496 1493 1488 1485 1483 1481 1479 1478 1476 1475 1475 1475
1519 1522 1524 1526 1528 1530 1532 1533 1535 1536 1537 1537 1538 1538 1539 1539 1540 1541 1541 1542 1543 1543 1544 1544 1543 1543 1543 1543 1542 1542 1541 1541 1540 1540 1540 1540 1540 1539 1538 1537 1536 1535 1534 1533 1533 1532 1531 1531 1530 1530 1530 1529 1528 1527 1527 1526 1525 1524 1523 1522 1521 1520 1518 1515 1512 1508 1504 1504 1503 1501 1499 1498 1494 1492 1490 1486 1482 1479 1476 1474 1473 1471 1470 1470 1470
1516 1518 1520 1523 1525 1527 1529 1531 1533 1534 1534 1535 1536 1537 1537 1538 1538 1539 1540 1541 1541 1542 1542 1542 1541 1541 1541 1541 1540 1540 1539 1539 1538 1538 1538 1538 1537 1537 1536 1535 1534 1533 1532 1531 1530 1530 1529 1528 1527 1527 1527 1526 1525 1524 1524 1523 1522 1521 1520 1520 1518 1517 1516 1513 1510 1507 1502 1500 1500 1498 1496 1494 1492 1489 1487 1483 1479 1475 1472 1470 1468 1467 1465 1465 1464
1512 1514 1517 1520 1522 1525 1526 1528 1530 1531 1532 1534 1535 1536 1537 1537 1537 1537 1538 1539 1539 1540 1540 1540 1540 1539 1539 1539 1538 1538 1538 1537 1536 1536 1536 1535 1535 1534 1533 1532 1531 1531 1529 1528 1528 1527 1526 1525 1525 1525 1524 1523 1522 1521 1521 1520 1519 1518 1517 1516 1515 1514 1513 1511 1508 1505 1501 1497 1496 1495 1493 1490 1488 1486 1483 1479 1475 1473 1469 1466 1464 1462 1460 1460 1459
1508 1511 1515 1519 1520 1521 1523 1525 1526 1529 1531 1534 1535 1537 1537 1536 1536 1535 1535 1536 1537 1538 1538 1538 1538 1538 1538 1537 1537 1536 1536 1535 1534 1533 1533 1533 1533 1532 1531 1530 1530 1528 1527 1526 1525 1524 1524 1523 1522 1522 1521 1520 1519 1519 1518 1517 1516 1515 1514 1513 1512 1511 1509 1508 1506 1503 1500 1495 1493 1492 1490 1487 1484 1482 1480 1475 1471 1468 1466 1464 1461 1459 1456 1455 1455
1505 1507 1512 1517 1519 1519 1519 1521 1524 1528 1531 1534 1536 1538 1537 1536 1535 1534 1533 1533 1534 1535 1536 1536 1536 1536 1535 1535 1534 1534 1534 1533 1532 1531 1531 1531 1531 1531 1530 1529 1528 1526 1525 1524 1523 1522 1521 1520 1520 1519 1518 1517 1516 1516 1515 1514 1513 1512 1510 1509 1508 1507 1505 1504 1503 1500 1497 1494 1491 1488 1487 1485 1481 1478 1476 1473 1468 1464 1461 1458 1457 1456 1454 1451 1450
1502 1503 1506 1510 1515 1517 1519 1521 1524 1527 1529 1531 1533 1534 1535 1535 1534 1532 1531 1531 1532 1533 1533 1534 1534 1533 1533 1532 1532 1532 1532 1531 1530 1529 1529 1529 1529 1529 1528 1527 1526 1524 1523 1522 1521 1520 1519 1518 1517 1516 1515 1514 1513 1513 1512 1511 1510 1509 1507 1506 1505 1503 1501 1500 1499 1497 1495 1492 1489 1486 1483 1481 1478 1474 1472 1470 1466 1462 1459 1455 1451 1450 1450 1448 1446
1498 1499 1500 1503 1510 1516 1521 1523 1523 1524 1525 1526 1528 1529 1531 1532 1532 1530 1529 1529 1530 1531 1531 1531 1531 1531 1531 1530 1531 1531 1530 1529 1528 1527 1527 1527 1527 1526 1526 1525 1524 1522 1521 1520 1518 1517 1516 1516 1515 1514 1513 1512 1510 1510 1509 1508 1507 1505 1504 1503 1502 1500 1498 1497 1495 1494 1492 1489 1486 1483 1480 1477 1475 1471 1468 1465 1462 1459 1457 1454 1449 1446 1445 1443 1442
1494 1496 1498 1502 1511 1520 1524 1524 1522 1522 1523 1524 1526 1527 1528 1529 1529 1529 1528 1528 1528 1529 1529 1530 1529 1529 1529 1529 1529 1529 1528 1527 1526 1525 1525 1525 1525 1524 1523 1523 1521 1520 1519 1517 1516 1515 1514 1513 1512 1511 1510 1509 1508 1507 1505 1505 1503 1502 1501 1500 1498 1496 1495 1493 1492 1490 1488 1486 1483 1480 1477 1474 1471 1468 1464 1462 1459 1455 1453 1451 1447 1443 1442 1438 1436
1493 1496 1498 1504 1512 1519 1523 1523 1521 1520 1521 1522 1524 1525 1526 1527 1527 1527 1526 1526 1527 1527 1527 1527 1527 1527 1526 1526 1527 1526 1526 1525 1524 1523 1523 1523 1522 1522 1521 1520 1519 1517 1516 1514 1513 1512 1511 1511 1510 1509 1508 1506 1505 1504 1502 1501 1500 1499 1498 1496 1495 1494 1492 1490 1489 1487 1485 1482 1480 1477 1474 1470 1468 1466 1461 1458 1456 1452 1449 1447 1442 1439 1438 1434 1430
1491 1495 1497 1502 1509 1511 1515 1518 1519 1518 1518 1519 1521 1523 1524 1525 1525 1525 1525 1524 1524 1525 1525 1525 1524 1524 1524 1524 1524 1524 1523 1522 1521 1521 1520 1520 1520 1519 1518 1517 1516 1515 1513 1511 1510 1509 1508 1508 1507 1506 1505 1504 1503 1501 1500 1499 1497 1496 1495 1493 1492 1491 1489 1487 1485 1484 1482 1479 1476 1474 1471 1467 1465 1463 1459 1455 1452 1448 1445 1443 1439 1436 1434 1431 1427
1493 1494 1492 1497 1504 1506 1509 1515 1517 1517 1517 1517 1519 1520 1522 1523 1523 1523 1522 1522 1522 1522 1522 1522 1522 1522 1521 1521 1522 1522 1521 1520 1519 1519 1518 1517 1517 1516 1515 1515 1513 1512 1510 1508 1507 1506 1505 1504 1503 1502 1502 1501 1500 1499 1497 1496 1495 1493 1492 1491 1490 1488 1487 1485 1483 1481 1478 1476 1473 1471 1468 1464 1461 1459 1455 1451 1447 1443 1440 1437 1435 1432 1430 1428 1424
1493 1493 1492 1498 1504 1505 1508 1512 1513 1514 1514 1515 1516 1517 1519 1520 1520 1520 1519 1519 1520 1520 1520 1520 1520 1520 1519 1520 1520 1520 1519 1518 1517 1516 1516 1515 1514 1513 1512 1511 1510 1509 1507 1506 1504 1503 1501 1500 1499 1499 1499 1498 1497 1496 1495 1493 1492 1490 1489 1488 1487 1485 1484 1482 1480 1478 1476 1473 1470 1467 1465 1462 1458 1455 1452 1448 1443 1438 1434 1430 1429 1427 1423 1421 1419
1487 1489 1493 1500 1504 1505 1507 1509 1510 1510 1511 1512 1513 1514 1515 1516 1516 1517 1517 1517 1517 1517 1517 1518 1518 1518 1517 1518 1518 1517 1516 1515 1514 1514 1513 1512 1512 1510 1509 1508 1507 1505 1504 1503 1501 1500 1498 1497 1496 1495 1495 1495 1494 1493 1492 1490 1489 1487 1486 1485 1483 1482 1480 1479 1477 1475 1473 1470 1467 1464 1462 1459 1455 1451 1448 1444 1439 1433 1428 1424 1421 1419 1416 1414 1413
1488 1491 1494 1498 1502 1504 1505 1506 1506 1507 1508 1509 1510 1511 1512 1513 1513 1514 1514 1514 1514 1514 1515 1515 1515 1515 1515 1515 1514 1514 1513 1512 1512 1511 1510 1509 1509 1508 1506 1505 1503 1502 1501 1500 1498 1497 1495 1494 1493 1492 1492 1492 1491 1490 1489 1487 1486 1484 1483 1481 1480 1478 1477 1475 1473 1471 1469 1467 1464 1461 1458 1455 1452 1448 1443 1439 1433 1428 1423 1418 1414 1411 1408 1406 1405
1488 1490 1492 1495 1498 1501 1502 1501 1502 1503 1504 1505 1506 1507 1508 1509 1509 1510 1510 1511 1511 1512 1512 1511 1511 1512 1512 1511 1511 1510 1510 1510 1509 1508 1507 1506 1506 1504 1503 1501 1500 1499 1497 1496 1495 1494 1492 1491 1490 1489 1489 1488 1488 1487 1486 1484 1483 1481 1479 1478 1476 1474 1473 1472 1470 1467 1465 1463 1460 1458 1455 1452 1449 1443 1438 1433 1426 1420 1415 1409 1406 1404 1401 1399 1397
1480 1483 1484 1486 1489 1493 1495 1496 1497 1499 1500 1501 1502 1504 1504 1505 1506 1506 1507 1507 1508 1508 1508 1508 1509 1509 1509 1508 1507 1507 1507 1507 1506 1505 1504 1503 1502 1501 1499 1498 1496 1495 1494 1493 1492 1491 1489 1488 1487 1486 1485 1485 1484 1484 1483 1481 1480 1478 1476 1474 1472 1471 1469 1468 1466 1464 1462 1459 1457 1454 1451 1448 1444 1438 1432 1426 1420 1414 1407 1401 1397 1395 1392 1390 1388
1473 1476 1477 1478 1482 1487 1490 1491 1493 1495 1496 1497 1498 1499 1500 1501 1502 1502 1503 1504 1504 1505 1505 1506 1506 1506 1506 1505 1504 1504 1504 1504 1503 1502 1501 1500 1498 1497 1495 1494 1493 1492 1491 1490 1489 1488 1487 1486 1485 1483 1483 1482 1481 1480 1479 1478 1476 1474 1472 1471 1469 1467 1465 1464 1461 1459 1458 1455 1453 1450 1447 1443 1438 1432 1426 1419 1412 1406 1399 1392 1387 1385 1382 1380 1381
1469 1472 1474 1476 1481 1484 1486 1488 1489 1491 1493 1494 1495 1496 1497 1498 1498 1499 1500 1501 1501 1502 1503 1503 1504 1504 1503 1503 1502 1501 1501 1500 1500 1498 1497 1496 1495 1494 1492 1491 1490 1489 1488 1487 1486 1485 1484 1483 1482 1481 1480 1479 1478 1477 1476 1475 1473 1471 1470 1468 1466 1464 1462 1460 1457 1455 1453 1450 1448 1445 1442 1437 1432 1426 1419 1412 1403 1396 1390 1383 1378 1374 1372 1372 1375
1466 1469 1472 1475 1480 1482 1483 1485 1486 1489 1490 1491 1492 1493 1494 1494 1495 1496 1497 1498 1499 1500 1500 1501 1502 1502 1502 1501 1499 1498 1498 1497 1496 1495 1494 1493 1492 1490 1489 1488 1487 1486 1485 1484 1483 1482 1482 1481 1480 1479 1478 1476 1475 1474 1473 1472 1470 1468 1467 1465 1463 1460 1458 1457 1454 1452 1449 1446 1444 1441 1437 1432 1426 1420 1413 1404 1395 1387 1380 1374 1369 1365 1364 1365 1368
1465 1469 1472 1475 1478 1480 1481 1483 1486 1488 1489 1489 1490 1491 1491 1491 1492 1493 1494 1495 1495 1495 1497 1499 1501 1500 1499 1498 1497 1496 1495 1494 1493 1492 1491 1490 1489 1487 1486 1485 1484 1483 1482 1482 1481 1480 1479 1478 1477 1476 1475 1474 1473 1471 1470 1469 1467 1466 1464 1462 1460 1458 1455 1453 1451 1449 1446 1444 1441 1438 1434 1428 1422 1415 1407 1398 1388 1379 1371 1365 1360 1357 1357 1358 1361
1465 1469 1471 1473 1476 1478 1481 1484 1486 1487 1488 1488 1488 1488 1488 1488 1489 1490 1491 1491 1490 1490 1493 1496 1497 1497 1496 1496 1494 1493 1492 1491 1490 1489 1488 1487 1486 1484 1483 1482 1482 1481 1480 1480 1479 1477 1476 1475 1474 1473 1472 1471 1470 1469 1468 1466 1465 1464 1462 1460 1458 1455 1453 1451 1449 1446 1444 1441 1439 1435 1431 1424 1417 1410 1402 1393 1383 1373 1364 1358 1354 1352 1353 1354 1357
1466 1468 1471 1473 1476 1479 1482 1484 1485 1487 1487 1487 1487 1487 1487 1486 1486 1487 1488 1487 1487 1487 1490 1493 1494 1494 1493 1493 1491 1490 1489 1488 1487 1486 1485 1484 1483 1481 1481 1480 1480 1479 1478 1477 1476 1475 1473 1472 1471 1470 1469 1468 1468 1467 1465 1464 1463 1461 1460 1458 1456 1453 1451 1449 1447 1444 1442 1439 1436 1433 1428 1422 1415 1408 1400 1391 1381 1370 1362 1354 1350 1350 1351 1352 1354
1466 1469 1471 1474 1476 1478 1480 1481 1484 1485 1486 1486 1486 1486 1486 1484 1483 1483 1484 1484 1485 1487 1488 1490 1491 1491 1490 1489 1488 1487 1486 1485 1484 1483 1482 1481 1480 1479 1479 1478 1478 1477 1476 1475 1474 1472 1471 1470 1469 1468 1467 1466 1466 1465 1463 1462 1461 1460 1458 1456 1454 1452 1450 1447 1445 1442 1439 1437 1434 1430 1426 1421 1415 1408 1402 1394 1384 1374 1364 1355 1350 1350 1350 1351 1353
1466 1468 1471 1473 1476 1478 1479 1480 1482 1483 1482 1483 1482 1482 1482 1481 1480 1480 1480 1482 1484 1486 1487 1487 1487 1487 1487 1486 1485 1485 1484 1483 1482 1481 1480 1479 1478 1478 1477 1477 1476 1475 1474 1473 1471 1470 1469 1468 1467 1465 1465 1465 1464 1463 1462 1461 1459 1458 1456 1454 1452 1450 1448 1445 1443 1440 1437 1434 1431 1428 1424 1420 1415 1410 1405 1397 1388 1377 1366 1357 1351 1350 1350 1351 1352
1465 1467 1469 1472 1476 1478 1478 1478 1479 1479 1479 1479 1479 1478 1479 1478 1478 1479 1480 1481 1483 1483 1484 1485 1484 1484 1484 1484 1483 1483 1482 1481 1480 1478 1478 1477 1476 1476 1476 1475 1475 1474 1473 1471 1470 1468 1467 1466 1465 1464 1463 1463 1463 1462 1460 1459 1458 1456 1454 1453 1451 1449 1446 1444 1441 1438 1435 1432 1429 1426 1423 1419 1415 1411 1407 1400 1391 1380 1370 1361 1354 1351 1350 1351 1352
1468 1469 1470 1471 1474 1475 1474 1475 1475 1476 1476 1476 1476 1476 1476 1476 1477 1478 1479 1480 1480 1481 1482 1482 1482 1481 1481 1481 1481 1480 1479 1478 1477 1476 1476 1475 1475 1475 1474 1474 1473 1472 1471 1470 1469 1467 1466 1465 1464 1463 1462 1462 1461 1460 1459 1458 1457 1455 1454 1452 1449 1447 1445 1442 1440 1437 1434 1431 1428 1425 1422 1418 1415 1411 1407 1401 1393 1384 1375 1367 1360 1354 1352 1353 1355
1468 1469 1469 1469 1470 1470 1470 1471 1471 1472 1472 1473 1473 1474 1474 1475 1475 1476 1476 1477 1478 1479 1479 1479 1479 1479 1478 1478 1477 1477 1476 1475 1475 1474 1474 1474 1474 1473 1473 1472 1471 1470 1469 1469 1467 1466 1465 1464 1463 1462 1461 1460 1459 1458 1458 1457 1456 1454 1453 1450 1448 1446 1444 1441 1439 1436 1433 1430 1427 1424 1421 1417 1414 1410 1406 1401 1395 1388 1380 1373 1367 1361 1357 1356 1356
1466 1466 1467 1468 1468 1467 1468 1468 1469 1470 1470 1471 1471 1472 1472 1473 1473 1474 1474 1475 1476 1476 1476 1476 1476 1476 1475 1475 1475 1474 1474 1473 1473 1472 1472 1472 1472 1472 1471 1470 1470 1469 1468 1467 1466 1465 1464 1463 1462 1461 1460 1459 1458 1457 1457 1456 1455 1453 1451 1449 1447 1445 1443 1440 1437 1435 1432 1429 1426 1423 1419 1416 1413 1409 1406 1401 1396 1391 1385 1378 1372 1367 1362 1359 1358
1465 1466 1468 1468 1467 1466 1466 1467 1467 1468 1468 1469 1469 1470 1470 1471 1471 1472 1472 1473 1473 1473 1474 1474 1474 1474 1473 1473 1473 1472 1472 1471 1471 1471 1471 1470 1470 1470 1469 1469 1468 1468 1467 1466 1465 1464 1463 1461 1461 1459 1458 1458 1457 1456 1456 1455 1454 1452 1450 1448 1446 1444 1441 1439 1436 1434 1431 1428 1425 1422 1419 1416 1412 1409 1406 1402 1397 1393 1388 1382 1377 1372 1367 1363 1362
1465 1465 1467 1467 1466 1466 1465 1465 1465 1466 1466 1467 1467 1467 1467 1468 1469 1469 1470 1471 1471 1472 1472 1472 1472 1472 1472 1471 1471 1471 1470 1469 1469 1469 1469 1469 1469 1468 1467 1467 1467 1466 1466 1465 1464 1463 1461 1460 1459 1458 1458 1457 1456 1455 1454 1453 1452 1450 1448 1447 1445 1442 1440 1438 1435 1433 1431 1428 1425 1422 1419 1416 1412 1409 1406 1402 1398 1394 1390 1386 1381 1376 1372 1369 1367
1464 1464 1465 1465 1464 1464 1464 1463 1463 1464 1464 1464 1464 1465 1466 1467 1467 1468 1469 1469 1470 1470 1470 1470 1470 1470 1470 1470 1470 1469 1469 1468 1468 1468 1467 1467 1467 1466 1466 1466 1465 1465 1464 1463 1462 1461 1460 1459 1458 1457 1457 1456 1455 1454 1453 1452 1450 1449 1447 1446 1444 1442 1440 1438 1435 1433 1430 1428 1425 1422 1419 1416 1413 1410 1406 1403 1400 1396 1393 1389 1385 1381 1377 1375 1372
1463 1463 1464 1463 1463 1462 1462 1461 1461 1462 1462 1462 1463 1464 1465 1465 1466 1467 1468 1468 1468 1469 1469 1469 1469 1469 1468 1468 1468 1468 1467 1467 1467 1466 1466 1466 1466 1465 1464 1464 1464 1463 1463 1462 1461 1460 1459 1458 1457 1456 1456 1455 1454 1453 1452 1450 1449 1448 1447 1445 1443 1441 1440 1437 1435 1433 1431 1428 1426 1423 1420 1417 1414 1411 1408 1405 1402 1399 1396 1392 1389 1386 1382 1379 1376
1461 1462 1462 1462 1461 1461 1460 1460 1461 1461 1461 1462 1462 1462 1463 1464 1465 1465 1466 1466 1467 1467 1467 1467 1467 1467 1467 1467 1467 1466 1466 1466 1465 1465 1465 1464 1464 1463 1463 1462 1462 1461 1461 1460 1460 1459 1458 1457 1456 1455 1455 1454 1453 1452 1451 1449 1448 1447 1446 1445 1443 1441 1440 1437 1435 1433 1431 1428 1426 1423 1421 1418 1415 1412 1409 1406 1403 1401 1399 1395 1392 1389 1386 1383 1380
1459 1460 1460 1460 1460 1460 1460 1460 1460 1460 1460 1460 1461 1461 1462 1462 1463 1463 1464 1464 1465 1465 1465 1465 1465 1465 1465 1465 1465 1465 1465 1465 1465 1464 1464 1463 1463 1462 1462 1461 1460 1460 1459 1459 1458 1458 1457 1456 1456 1455 1454 1453 1452 1451 1450 1449 1448 1447 1446 1444 1443 1441 1439 1437 1435 1433 1430 1428 1426 1424 1421 1418 1416 1413 1410 1407 1404 1402 1400 1398 1395 1392 1390 1387 1384
1457 1457 1458 1459 1459 1459 1459 1459 1459 1459 1459 1459 1459 1460 1460 1460 1461 1462 1462 1462 1463 1463 1463 1463 1463 1463 1463 1464 1464 1464 1464 1464 1463 1463 1462 1462 1462 1461 1461 1460 1459 1458 1458 1457 1457 1456 1456 1455 1455 1454 1454 1453 1452 1451 1449 1448 1447 1446 1445 1444 1442 1441 1439 1436 1434 1432 1430 1428 1426 1424 1421 1419 1416 1414 1411 1409 1406 1404 1402 1400 1398 1396 1393 1391 1389
1455 1455 1456 1457 1457 1457 1458 1458 1459 1459 1459 1458 1458 1458 1459 1459 1459 1459 1460 1460 1460 1461 1461 1461 1461 1461 1462 1462 1463 1463 1463 1462 1462 1461 1460 1460 1460 1460 1460 1459 1458 1458 1457 1456 1456 1455 1455 1454 1454 1453 1453 1452 1451 1450 1449 1447 1446 1445 1445 1443 1442 1440 1438 1435 1433 1431 1429 1428 1426 1424 1421 1419 1417 1414 1412 1410 1408 1405 1403 1401 1399 1397 1396 1393 1391
1453 1453 1454 1455 1455 1456 1457 1457 1458 1458 1458 1458 1458 1458 1457 1457 1457 1457 1457 1457 1458 1459 1459 1459 1459 1459 1460 1461 1462 1462 1461 1461 1460 1459 1458 1458 1458 1458 1459 1458 1458 1457 1456 1456 1455 1455 1454 1454 1453 1453 1452 1452 1451 1450 1448 1447 1445 1444 1443 1442 1441 1439 1437 1435 1433 1431 1429 1427 1426 1424 1422 1420 1417 1415 1413 1411 1409 1407 1405 1402 1400 1398 1397 1395 1392
1451 1451 1453 1453 1454 1455 1455 1456 1456 1456 1456 1456 1456 1456 1456 1456 1455 1455 1455 1456 1457 1457 1458 1457 1458 1459 1460 1460 1461 1460 1460 1459 1459 1458 1457 1456 1456 1457 1457 1457 1457 1456 1455 1455 1454 1454 1454 1453 1452 1452 1451 1451 1450 1449 1448 1446 1445 1443 1442 1441 1440 1438 1436 1435 1433 1431 1429 1427 1426 1424 1422 1420 1418 1416 1414 1412 1410 1408 1406 1404 1402 1400 1398 1396 1395
1449 1450 1451 1452 1452 1453 1453 1454 1454 1454 1454 1454 1454 1454 1454 1454 1453 1453 1454 1454 1455 1456 1456 1457 1457 1458 1459 1459 1459 1459 1458 1458 1457 1457 1456 1455 1455 1455 1456 1456 1455 1455 1455 1454 1454 1453 1453 1452 1452 1451 1451 1450 1450 1449 1447 1446 1444 1443 1441 1440 1439 1437 1436 1434 1433 1431 1429 1427 1426 1424 1423 1421 1419 1417 1416 1413 1411 1410 1408 1406 1404 1402 1400 1399 1397
1447 1448 1449 1450 1451 1451 1451 1452 1452 1452 1452 1453 1453 1452 1452 1452 1452 1452 1452 1453 1454 1455 1455 1456 1456 1457 1457 1457 1457 1457 1457 1456 1456 1456 1455 1453 1453 1453 1454 1454 1454 1454 1454 1453 1453 1452 1452 1451 1451 1451 1450 1450 1449 1448 1446 1445 1444 1442 1441 1440 1438 1437 1436 1434 1433 1431 1429 1428 1427 1425 1423 1422 1420 1418 1417 1415 1413 1411 1410 1408 1406 1404 1403 1401 1400
1446 1447 1447 1448 1449 1449 1450 1450 1450 1450 1451 1451 1451 1451 1451 1450 1451 1451 1451 1451 1452 1453 1454 1455 1456 1456 1456 1456 1457 1457 1456 1455 1454 1454 1453 1452 1452 1452 1452 1452 1453 1453 1453 1453 1452 1451 1451 1451 1450 1450 1449 1449 1448 1447 1445 1445 1443 1442 1441 1440 1438 1437 1436 1435 1433 1432 1430 1429 1427 1426 1424 1423 1421 1419 1418 1417 1415 1413 1411 1409 1407 1406 1404 1403 1401
1445 1446 1446 1447 1448 1448 1448 1449 1449 1449 1449 1449 1448 1449 1449 1449 1449 1450 1450 1450 1451 1452 1453 1454 1454 1455 1455 1455 1456 1455 1455 1454 1453 1453 1452 1451 1451 1451 1451 1451 1452 1452 1452 1452 1451 1451 1450 1450 1450 1449 1449 1448 1447 1446 1445 1444 1443 1442 1441 1440 1439 1438 1437 1435 1434 1433 1431 1430 1429 1427 1425 1424 1422 1420 1419 1418 1417 1415 1413 1411 1409 1407 1406 1404 1403
1444 1445 1445 1446 1446 1446 1447 1447 1447 1447 1447 1446 1446 1447 1448 1448 1448 1448 1449 1449 1450 1451 1452 1453 1453 1453 1454 1454 1454 1453 1453 1452 1452 1451 1450 1450 1449 1450 1450 1451 1451 1451 1451 1451 1451 1450 1449 1449 1449 1448 1447 1447 1447 1445 1445 1444 1443 1442 1441 1440 1439 1438 1437 1436 1435 1434 1432 1431 1430 1428 1427 1425 1423 1421 1420 1419 1418 1416 1415 1413 1411 1409 1407 1406 1405
1443 1444 1444 1445 1445 1445 1446 1446 1446 1446 1445 1445 1445 1446 1447 1447 1448 1448 1448 1449 1449 1450 1451 1452 1452 1452 1452 1452 1451 1451 1451 1451 1450 1450 1449 1448 1448 1449 1449 1450 1450 1451 1451 1450 1450 1449 1449 1448 1447 1447 1446 1446 1446 1445 1444 1444 1443 1442 1441 1440 1440 1439 1438 1437 1436 1435 1433 1432 1431 1429 1428 1426 1424 1422 1421 1420 1419 1418 1416 1415 1413 1412 1410 1408 1406
1442 1443 1443 1443 1444 1444 1444 1444 1444 1444 1444 1444 1444 1444 1445 1446 1446 1447 1447 1448 1448 1449 1450 1450 1451 1451 1451 1450 1450 1450 1450 1450 1450 1449 1448 1447 1447 1448 1449 1449 1450 1450 1450 1450 1449 1449 1448 1447 1446 1446 1446 1446 1445 1444 1444 1443 1442 1442 1441 1440 1440 1439 1438 1437 1436 1435 1434 1433 1432 1430 1429 1427 1425 1424 1422 1421 1420 1419 1417 1416 1415 1414 1412 1411 1409
1441 1442 1442 1442 1442 1442 1443 1443 1443 1443 1443 1444 1444 1444 1444 1444 1445 1445 1446 1446 1447 1447 1448 1449 1449 1450 1449 1449 1449 1448 1449 1449 1449 1448 1447 1447 1447 1447 1448 1449 1449 1450 1449 1449 1449 1448 1447 1446 1446 1446 1446 1445 1445 1444 1443 1443 1442 1442 1441 1440 1439 1439 1438 1437 1436 1435 1435 1434 1433 1431 1430 1428 1427 1425 1424 1423 1421 1420 1418 1417 1416 1415 1414 1413 1411
1440 1441 1441 1441 1441 1442 1442 1442 1442 1442 1443 1443 1443 1443 1443 1443 1444 1444 1444 1445 1445 1446 1446 1447 1448 1448 1448 1448 1447 1447 1447 1447 1447 1447 1447 1446 1446 1447 1448 1448 1449 1449 1449 1448 1448 1447 1447 1446 1446 1446 1446 1445 1444 1443 1443 1442 1442 1441 1441 1440 1439 1438 1438 1437 1436 1435 1434 1434 1433 1432 1431 1430 1428 1427 1425 1424 1423 1421 1419 1418 1417 1416 1415 1414 1413
1439 1439 1440 1440 1440 1441 1441 1441 1441 1441 1441 1441 1442 1441 1441 1442 1442 1442 1443 1443 1444 1444 1445 1445 1446 1446 1447 1447 1446 1446 1446 1446 1446 1446 1446 1446 1446 1447 1447 1448 1448 1448 1448 1448 1447 1447 1446 1446 1446 1446 1445 1445 1444 1443 1443 1442 1441 1441 1440 1439 1439 1438 1437 1436 1436 1435 1434 1433 1433 1432 1431 1430 1429 1428 1427 1426 1424 1423 1421 1420 1419 1418 1417 1415 1414
1438 1438 1438 1439 1439 1439 1439 1440 1440 1440 1440 1440 1440 1440 1440 1440 1440 1440 1441 1442 1442 1443 1443 1443 1444 1444 1444 1445 1445 1445 1445 1445 1445 1445 1445 1446 1446 1446 1447 1447 1447 1447 1447 1447 1447 1446 1445 1445 1445 1445 1445 1445 1444 1443 1443 1442 1441 1440 1439 1439 1438 1437 1437 1436 1435 1434 1434 1433 1433 1432 1431 1431 1430 1429 1428 1427 1426 1424 1422 1421 1420 1419 1418 1417 1416
1438 1438 1438 1438 1438 1437 1438 1438 1438 1438 1438 1438 1438 1438 1438 1438 1438 1439 1439 1440 1441 1441 1442 1442 1442 1442 1442 1443 1443 1444 1444 1444 1444 1444 1444 1445 1445 1445 1446 1446 1446 1446 1446 1446 1445 1445 1444 1444 1445 1445 1444 1444 1443 1443 1442 1441 1440 1439 1439 1438 1437 1437 1436 1435 1434 1434 1433 1433 1433 1432 1431 1431 1430 1430 1429 1428 1427 1426 1424 1423 1422 1421 1420 1419 1418